This is the latest recevied weather packets stored in our database for station/object 9M4RBN-3. If no packets are shown the sender has not sent any weather packets the latest 10 day(s).
| Time | Temp. | Humidity | Pressure | Rain* | Wind** | Luminosity | Snow |
|---|---|---|---|---|---|---|---|
| 1777712793 | 26.67° C | 38% | 1012 hPa | - | - | - | - |
| 1777711893 | 27.22° C | 45% | 1012.4 hPa | - | - | - | - |
| 1777710993 | 27.22° C | 50% | 1012.1 hPa | - | - | - | - |
| 1777710093 | 27.22° C | 49% | 1012.3 hPa | - | - | - | - |
| 1777709193 | 27.22° C | 47% | 1012.5 hPa | - | - | - | - |
| 1777708293 | 27.22° C | 48% | 1012.8 hPa | - | - | - | - |
| 1777707393 | 27.22° C | 48% | 1012.9 hPa | - | - | - | - |
| 1777706493 | 27.22° C | 49% | 1013 hPa | - | - | - | - |
| 1777705593 | 27.22° C | 50% | 1013.2 hPa | - | - | - | - |
| 1777704692 | 27.22° C | 48% | 1013.4 hPa | - | - | - | - |
| 1777703792 | 27.22° C | 47% | 1013.8 hPa | - | - | - | - |
| 1777702892 | 27.22° C | 48% | 1013.9 hPa | - | - | - | - |
| 1777701992 | 26.67° C | 49% | 1014.3 hPa | - | - | - | - |
| 1777701092 | 26.67° C | 48% | 1014.6 hPa | - | - | - | - |
| 1777700192 | 26.67° C | 49% | 1014.9 hPa | - | - | - | - |
| 1777699292 | 26.67° C | 49% | 1015.2 hPa | - | - | - | - |
| 1777698392 | 26.67° C | 50% | 1015.3 hPa | - | - | - | - |
| 1777697492 | 26.67° C | 51% | 1015.7 hPa | - | - | - | - |
| 1777696592 | 26.67° C | 55% | 1015.9 hPa | - | - | - | - |
| 1777695692 | 26.67° C | 63% | 1016.3 hPa | - | - | - | - |
| 1777694792 | 26.67° C | 61% | 1016.6 hPa | - | - | - | - |
| 1777693892 | 26.67° C | 43% | 1016.7 hPa | - | - | - | - |
| 1777692992 | 27.22° C | 48% | 1016.7 hPa | - | - | - | - |
| 1777692092 | 28.33° C | 68% | 1016.8 hPa | - | - | - | - |
| 1777691192 | 28.33° C | 76% | 1016.9 hPa | - | - | - | - |
* Rain since midnight (hover to see other rain measurements)
** Current wind speed in m/s (hover to see current wind gust speed)